This is the latest recevied weather packets stored in our database for station/object SQ3VAS-10. If no packets are shown the sender has not sent any weather packets the latest 10 day(s).
| Time | Temp. | Humidity | Pressure | Rain* | Wind** | Luminosity | Snow |
|---|---|---|---|---|---|---|---|
| 1777759962 | 12.78° C | 63% | 1016.5 hPa | - | - | - | - |
| 1777759392 | 13.33° C | 61% | 1016.6 hPa | - | - | - | - |
| 1777758815 | 13.33° C | 60% | 1016.5 hPa | - | - | - | - |
| 1777758243 | 13.89° C | 60% | 1016.6 hPa | - | - | - | - |
| 1777757672 | 13.89° C | 60% | 1016.6 hPa | - | - | - | - |
| 1777757101 | 13.89° C | 58% | 1016.7 hPa | - | - | - | - |
| 1777756529 | 14.44° C | 56% | 1016.7 hPa | - | - | - | - |
| 1777755959 | 15° C | 55% | 1016.7 hPa | - | - | - | - |
| 1777755387 | 15° C | 54% | 1016.8 hPa | - | - | - | - |
| 1777754814 | 15.56° C | 55% | 1016.7 hPa | - | - | - | - |
| 1777754242 | 16.11° C | 53% | 1016.9 hPa | - | - | - | - |
| 1777753670 | 16.11° C | 52% | 1016.9 hPa | - | - | - | - |
| 1777753096 | 16.67° C | 51% | 1016.9 hPa | - | - | - | - |
| 1777752527 | 16.67° C | 49% | 1016.9 hPa | - | - | - | - |
| 1777751957 | 17.22° C | 47% | 1016.8 hPa | - | - | - | - |
| 1777750809 | 17.78° C | 45% | 1016.7 hPa | - | - | - | - |
| 1777750236 | 18.33° C | 46% | 1016.7 hPa | - | - | - | - |
| 1777749665 | 19.44° C | 43% | 1016.7 hPa | - | - | - | - |
| 1777749093 | 20° C | 40% | 1016.6 hPa | - | - | - | - |
| 1777748520 | 20.56° C | 40% | 1016.7 hPa | - | - | - | - |
| 1777747949 | 21.11° C | 40% | 1016.6 hPa | - | - | - | - |
| 1777747377 | 22.22° C | 36% | 1016.5 hPa | - | - | - | - |
| 1777746806 | 23.33° C | 32% | 1016.4 hPa | - | - | - | - |
| 1777746233 | 23.89° C | 28% | 1016.5 hPa | - | - | - | - |
| 1777745661 | 25° C | 25% | 1016.5 hPa | - | - | - | - |
* Rain since midnight (hover to see other rain measurements)
** Current wind speed in m/s (hover to see current wind gust speed)